Theta_e
309 309 308 309 309 309 309 309 309 309 309 309 309 309 310 310 311 311 312 312 312 313 315 314 315 316 317 304 304 317 326 323 316 314 311 310 308 308 304 306 306 305 303 303 303 302 303
308 308 307 307 308 308 309 308 308 309 309 309 309 309 309 310 310 311 312 312 311 312 315 314 315 315 310 300 316 319 317 317 315 313 311 311 308 309 306 304 304 303 303 302 302 301 301
308 307 306 307 307 308 308 308 308 308 308 309 309 310 310 310 310 311 312 311 311 312 314 314 314 317 309 305 316 317 316 315 314 312 309 311 311 309 307 302 303 302 300 300 301 301 300
307 306 306 306 307 307 308 308 308 308 308 308 308 309 309 310 310 311 311 310 311 313 314 314 315 317 305 314 318 315 316 315 315 313 312 312 312 308 306 305 302 300 300 298 300 300 299
307 307 306 306 306 307 307 307 307 308 308 308 308 309 309 310 310 310 309 309 310 313 313 315 315 313 303 316 310 314 316 311 313 311 312 310 310 306 304 301 299 300 295 297 299 300 299
307 306 306 306 306 307 307 307 307 307 307 307 307 309 310 310 310 309 308 307 309 311 311 313 310 307 306 304 310 312 317 314 309 309 307 307 307 303 302 299 292 295 296 297 296 299 297
305 305 305 305 306 306 306 306 306 306 306 307 307 308 309 310 310 307 310 310 307 306 308 301 300 301 303 308 313 310 313 310 308 306 300 303 299 297 298 299 298 297 296 295 298 300 296
305 304 304 305 305 305 306 306 305 305 306 306 307 308 309 309 308 307 311 304 301 304 299 303 304 301 305 307 303 307 313 305 303 298 300 300 296 299 299 299 297 297 295 295 299 300 296
304 304 303 304 304 305 305 305 305 305 306 306 307 308 309 307 306 308 306 303 308 306 302 298 300 299 301 305 301 303 308 306 300 297 298 295 297 300 298 297 295 296 295 295 295 298 297
303 303 303 303 304 304 304 304 304 305 306 306 307 308 308 307 305 307 303 307 310 309 297 292 295 298 302 303 299 308 310 305 301 297 298 297 300 297 297 295 297 292 299 297 296 295 290
302 302 302 302 303 303 303 304 304 305 305 306 307 308 307 306 307 303 305 308 310 307 290 293 294 303 302 298 298 302 312 307 299 298 299 295 296 296 295 296 298 295 298 297 296 295 295
301 301 301 302 302 302 303 303 303 304 305 305 306 306 307 307 310 307 309 307 307 296 285 289 293 293 295 297 297 304 307 309 307 300 299 298 303 300 299 299 299 300 298 298 297 294 288
301 301 301 302 302 302 302 303 303 304 304 305 306 305 307 309 301 308 307 303 296 286 291 287 288 292 292 292 294 298 300 299 297 293 294 297 297 301 301 298 301 299 296 289 287 288 287
301 301 301 301 301 301 302 303 303 304 304 305 305 303 306 308 308 308 303 299 286 284 286 291 291 291 288 292 293 296 298 296 299 298 295 292 290 297 302 298 296 297 296 289 281 284 287
300 300 300 300 300 301 302 303 303 304 304 304 303 311 308 307 309 306 302 286 285 287 289 289 290 288 288 291 291 292 294 292 294 297 289 289 291 300 300 302 300 296 294 298 290 291 288
300 300 300 300 300 301 302 302 303 303 304 302 306 306 303 308 310 307 296 285 288 291 292 291 286 288 286 288 289 290 292 295 293 297 299 292 287 297 299 302 302 300 301 291 291 283 282
299 299 299 300 300 301 302 302 302 303 303 300 305 300 305 308 311 301 288 289 291 294 293 290 288 287 287 286 289 289 290 295 295 294 298 295 291 294 298 296 295 298 296 293 291 287 284
299 299 299 300 300 300 301 302 302 303 302 302 303 296 305 308 297 297 292 291 292 292 294 292 292 290 287 288 287 289 288 291 296 294 291 295 291 288 294 299 301 299 296 290 288 285 287
298 298 299 299 300 300 301 301 302 303 300 302 297 296 305 306 291 291 292 291 292 291 291 290 290 291 291 288 285 289 290 294 297 292 292 294 290 286 291 296 299 296 296 296 290 291 287
298 298 298 299 299 300 301 301 302 302 299 301 298 291 295 297 296 293 290 288 287 292 291 292 290 291 289 287 290 287 288 293 293 292 294 298 291 286 286 290 294 292 295 295 293 286 287
298 298 298 299 299 299 300 301 301 301 299 302 297 290 290 288 289 291 291 288 285 285 290 292 289 287 286 283 286 286 288 289 291 292 293 294 287 291 292 292 294 294 295 295 289 293 288
299 298 298 298 298 298 299 300 301 300 298 298 294 292 293 290 289 289 288 286 285 286 287 286 286 287 287 285 286 284 288 288 286 290 290 292 287 289 288 295 295 293 295 296 296 295 293
299 298 298 298 298 298 299 300 300 299 300 297 297 296 296 287 287 289 287 286 285 287 288 289 288 287 286 288 291 292 292 292 291 288 288 288 288 287 286 293 293 289 294 296 298 299 299
300 299 298 298 298 298 299 300 299 299 301 299 297 298 294 285 289 287 286 286 285 286 285 288 289 287 291 294 295 295 294 293 292 291 291 287 288 287 285 290 283 293 298 297 296 298 299
300 299 298 298 297 297 297 299 299 299 299 298 298 297 294 286 287 285 285 286 286 287 287 287 290 292 294 293 288 287 289 292 290 289 288 288 287 285 284 286 292 294 296 294 293 294 299
301 300 298 298 297 297 297 297 299 299 298 298 297 299 295 289 286 287 286 286 286 287 288 288 292 294 295 290 287 280 281 283 284 287 290 288 287 284 285 284 283 294 299 299 299 292 300
301 300 299 298 297 297 297 296 297 298 298 299 296 300 296 290 289 289 288 288 290 289 287 287 287 289 294 288 284 282 282 285 281 281 283 285 283 280 282 284 292 300 301 300 291 293 301
301 301 300 299 297 297 297 296 296 297 296 298 295 299 295 291 290 290 290 289 290 290 286 287 287 289 289 284 284 284 282 285 282 286 284 283 283 282 284 286 285 303 302 296 301 304 302
301 301 300 300 298 297 297 296 296 297 296 297 293 298 298 294 291 295 294 295 293 292 289 291 288 285 290 284 288 287 284 286 284 280 289 283 286 284 284 293 303 304 303 305 305 303 302
Wind_Speed
10 10 10 11 12 12 14 14 15 16 17 18 19 20 22 22 23 23 20 22 22 22 18 12 13 13 7 3 7 13 14 11 6 5 6 5 5 5 9 1 3 5 2 2 4 4 3
9 9 9 10 11 12 13 14 15 17 17 19 20 21 22 23 23 23 20 20 20 18 13 9 9 13 4 5 9 13 16 11 6 5 5 5 3 2 0 1 5 2 3 6 5 6 6
9 9 9 10 11 12 13 14 15 17 18 19 20 21 23 25 25 25 23 21 18 14 9 5 5 5 14 10 8 12 13 6 5 4 3 5 1 4 3 4 4 5 5 5 6 6 4
9 9 9 10 12 12 13 14 15 17 18 20 22 22 24 24 25 24 23 20 12 9 5 5 5 3 7 9 9 16 16 4 5 1 2 3 2 6 2 7 5 6 5 10 9 7 5
9 10 10 10 11 12 13 14 16 17 19 21 22 22 23 24 24 24 23 13 5 4 4 6 3 5 5 9 19 15 10 10 8 1 3 2 1 2 5 8 8 7 12 5 4 7 3
10 11 10 10 11 12 14 15 17 19 20 21 22 22 22 23 23 22 19 6 7 5 5 3 10 4 11 14 13 14 13 6 4 3 5 2 3 6 6 8 9 11 8 7 8 4 8
9 9 9 10 12 14 15 17 19 20 21 22 23 23 22 21 19 22 8 3 3 4 17 12 8 7 10 19 2 16 18 5 3 1 3 2 7 4 7 5 5 6 10 13 11 3 8
8 8 8 10 13 15 17 18 19 20 21 22 23 23 21 19 13 18 10 8 6 5 10 8 7 11 7 15 5 17 21 6 4 4 2 5 3 4 1 2 5 8 12 13 12 6 9
9 9 10 12 14 15 17 19 19 20 22 22 23 23 22 19 5 5 19 14 6 4 1 9 9 11 11 13 8 16 17 9 5 4 6 6 5 2 5 5 6 6 11 13 18 14 12
9 9 12 13 14 16 17 18 19 20 21 22 22 21 21 18 0 5 8 14 4 4 3 15 11 10 13 12 2 11 15 6 2 6 7 3 3 2 2 6 5 10 9 13 15 13 12
9 11 12 13 14 15 16 17 19 20 21 22 19 20 16 17 3 6 10 9 2 4 1 13 8 9 11 11 11 19 13 2 6 8 5 6 6 7 9 8 5 10 6 8 9 9 9
10 11 12 12 13 15 16 18 19 20 21 21 18 16 17 3 3 10 9 1 4 2 5 5 7 13 16 16 12 12 20 3 3 4 1 6 5 5 6 2 4 4 9 12 6 5 6
11 12 12 12 13 14 16 18 19 20 21 21 18 11 9 4 9 13 5 4 2 8 4 9 9 12 9 14 11 13 11 22 14 7 9 11 3 1 4 9 7 8 11 6 4 2 4
12 12 11 11 13 15 17 18 20 21 22 20 16 7 5 7 10 6 3 0 11 2 5 5 7 7 9 16 9 13 7 10 16 14 10 7 2 8 11 6 9 7 8 4 6 6 7
11 11 12 12 14 16 17 18 20 21 21 18 12 1 5 12 10 3 2 10 4 4 5 8 1 5 6 11 8 8 8 10 8 15 7 5 4 8 5 6 6 3 4 4 6 5 7
10 10 12 13 14 15 17 19 21 22 23 15 3 2 8 18 8 3 8 7 4 3 4 4 6 7 8 12 10 8 7 6 8 14 9 2 7 5 5 5 2 7 5 2 2 4 3
9 10 12 13 14 16 18 20 22 23 23 10 2 0 11 17 5 8 7 7 7 6 2 6 5 4 6 7 9 6 6 4 14 16 11 9 3 5 6 4 4 2 1 4 3 3 4
9 10 11 13 15 17 18 20 22 22 22 4 2 4 11 11 6 5 6 4 1 4 3 3 2 3 5 7 5 4 5 4 10 18 11 6 6 6 12 3 3 4 1 4 3 3 1
8 9 11 12 15 16 18 20 21 21 17 3 4 4 7 7 6 7 8 8 5 2 6 3 3 5 6 6 5 5 5 8 8 16 11 8 3 6 5 5 3 3 3 1 1 0 6
7 8 11 13 15 16 18 20 22 21 12 2 2 3 6 8 7 10 9 5 4 5 4 3 4 2 9 5 2 7 11 5 17 14 12 6 4 4 7 13 13 10 10 5 4 3 1
8 8 10 12 14 16 18 20 21 18 10 2 5 4 3 4 7 8 4 2 4 3 3 5 3 7 7 5 13 3 7 14 13 1 6 7 8 11 14 17 17 19 19 12 11 8 6
8 8 9 11 13 16 17 18 21 21 9 5 3 3 3 6 3 5 3 3 3 3 3 2 4 8 7 8 12 20 17 15 9 7 7 8 9 13 14 12 11 17 14 16 18 15 16
9 9 9 10 12 15 17 20 22 22 5 4 3 3 1 1 4 0 3 3 2 4 3 2 6 12 11 9 15 20 21 21 20 19 17 11 6 7 7 7 16 7 6 9 9 13 12
10 9 9 10 11 14 16 17 21 23 14 5 3 0 1 4 2 4 4 0 2 3 4 5 8 8 9 19 23 19 20 19 15 15 13 9 8 5 7 12 4 3 6 4 5 6 6
12 11 9 9 11 12 14 16 18 18 16 8 3 2 2 4 4 5 4 1 3 3 7 6 3 8 13 14 9 9 3 6 6 2 8 14 7 5 4 7 10 3 10 7 6 8 5
13 12 10 9 10 11 13 14 15 17 12 7 8 4 3 4 3 4 3 1 3 3 2 1 6 8 6 4 4 5 4 6 4 6 5 8 11 5 4 5 1 7 13 5 3 3 10
13 12 11 9 9 10 11 12 12 13 12 6 5 7 2 3 4 3 1 0 1 2 3 1 6 4 4 4 4 4 4 5 4 7 7 3 4 8 5 5 7 8 15 4 5 8 12
14 12 11 10 9 9 10 10 11 10 11 4 5 7 4 2 4 4 3 4 2 2 3 5 5 2 3 3 4 3 4 4 5 8 5 5 3 4 5 6 4 17 11 12 11 10 8
14 13 12 11 9 8 9 9 10 7 7 6 4 4 4 1 4 1 4 7 7 6 4 1 4 1 3 3 2 4 5 3 5 5 3 3 3 5 5 4 10 20 9 12 11 9 7
Wind_Direction
61 46 37 30 29 22 17 8 6 2 358 355 350 346 341 339 335 331 328 324 327 325 323 311 298 314 291 144 33 349 329 331 294 336 355 340 292 284 274 219 210 265 140 99 125 148 153
56 48 37 35 23 25 15 7 3 359 357 352 349 343 340 336 334 327 324 326 324 321 319 307 312 312 276 92 339 340 336 320 358 342 23 353 343 331 103 345 284 98 163 139 159 137 153
58 49 40 31 26 23 16 4 5 359 356 352 348 341 338 338 334 328 325 327 320 317 324 312 304 307 61 34 341 338 345 353 345 343 8 23 34 276 163 149 131 151 204 178 175 168 151
52 44 44 34 22 20 16 5 4 359 354 352 347 345 339 335 330 325 325 321 314 308 318 311 303 282 78 10 339 10 350 343 12 330 7 40 95 100 310 119 169 230 248 257 131 184 140
63 49 38 31 25 16 17 5 2 359 355 352 348 344 338 333 328 325 328 323 325 311 315 281 285 334 51 332 6 357 342 326 320 115 80 119 247 61 171 232 233 195 279 259 243 210 163
55 49 35 25 27 16 15 7 3 360 355 350 345 342 338 334 329 328 328 304 339 200 277 230 31 151 39 344 330 315 7 315 318 308 208 186 194 229 213 243 279 319 290 273 285 121 226
53 51 36 28 26 18 10 11 360 358 353 348 343 341 340 335 333 336 334 266 256 56 35 53 31 29 357 345 270 13 352 317 331 319 327 52 264 296 358 2 335 304 287 287 286 285 273
64 49 36 27 23 16 9 9 358 354 349 346 343 339 341 338 341 339 35 64 40 345 77 48 44 32 5 339 315 15 354 15 351 26 286 229 332 48 72 302 289 294 291 288 299 251 232
66 45 37 24 22 12 10 4 356 353 349 347 343 341 341 337 312 9 54 35 323 195 255 36 18 8 354 336 9 3 353 325 343 3 355 320 0 354 297 293 303 297 295 320 307 298 238
66 49 37 26 19 13 9 1 355 353 350 346 346 347 344 336 161 360 53 359 358 204 140 3 6 24 342 326 83 1 2 334 288 351 345 38 41 310 248 290 304 304 9 312 309 286 273
59 49 36 26 19 12 5 358 355 352 351 348 349 346 356 11 19 32 333 334 141 233 105 345 353 319 340 31 334 9 346 313 3 339 289 58 316 307 283 307 305 318 317 313 311 289 284
55 47 38 26 18 12 2 357 355 352 350 347 348 350 330 54 34 9 338 262 219 224 52 6 351 355 11 14 16 4 29 26 344 317 310 311 311 292 341 331 279 315 271 277 269 275 247
58 51 38 26 16 9 2 357 354 351 348 345 343 347 13 13 338 331 311 218 62 61 313 4 342 342 360 7 18 7 14 44 30 345 9 324 59 345 324 272 204 251 291 321 306 248 265
61 52 39 25 14 9 4 358 354 349 348 342 338 310 63 34 337 318 242 154 65 332 18 354 340 338 25 7 12 360 11 34 27 12 302 339 153 1 4 329 319 331 317 300 303 311 316
63 54 40 23 15 10 3 360 353 350 349 343 313 24 13 352 345 290 262 55 50 30 0 348 304 0 27 15 341 350 69 22 33 16 6 332 287 341 11 319 307 31 291 5 296 290 271
63 49 37 25 18 12 5 1 354 352 351 349 6 325 20 346 337 274 65 98 87 37 351 336 36 11 358 356 358 3 29 27 357 8 358 305 286 309 297 277 98 298 105 246 83 288 291
69 52 40 29 19 13 9 3 358 354 350 339 346 222 8 345 282 55 73 79 105 56 4 7 25 21 2 353 338 351 12 91 10 355 343 342 224 295 277 232 305 216 200 34 108 321 323
76 55 40 30 23 14 9 5 359 355 347 351 356 49 357 327 50 48 64 89 76 62 61 74 29 43 356 338 327 337 336 322 10 348 334 67 295 280 285 63 337 310 309 158 257 137 236
85 60 40 31 23 18 9 5 0 359 6 337 54 7 4 320 80 74 107 94 66 65 35 24 43 10 357 330 321 315 330 344 360 339 351 344 313 297 222 164 171 300 19 61 134 307 201
99 69 45 33 25 20 12 7 3 0 3 334 84 61 42 45 43 92 115 78 108 46 68 9 15 346 341 330 284 298 302 319 335 318 309 245 273 266 318 319 310 292 278 259 199 236 191
113 78 51 40 29 22 17 9 3 0 5 333 22 66 349 47 56 81 80 85 87 69 22 359 161 33 360 315 313 258 318 314 318 310 312 354 274 292 297 286 275 277 274 266 216 240 220
123 95 64 49 36 27 20 11 7 7 355 72 98 126 95 92 78 87 68 69 49 60 328 45 332 337 317 289 288 294 297 297 289 292 336 345 284 313 294 291 287 289 272 257 240 247 240
132 114 82 61 45 34 27 21 15 15 328 79 62 96 271 129 101 35 51 83 65 332 107 348 338 317 312 341 310 286 279 275 267 275 287 294 285 331 271 304 314 285 264 271 259 231 246
142 126 101 74 56 43 37 32 28 27 31 73 70 55 109 104 104 87 157 278 290 347 299 302 309 293 338 320 297 276 255 253 255 262 238 244 245 273 285 305 229 356 9 314 302 289 243
148 137 116 90 72 56 45 41 38 38 35 65 57 4 64 107 101 150 180 226 272 273 272 299 332 332 315 302 302 324 313 181 117 218 215 213 240 273 269 294 286 82 30 8 346 77 28
153 145 128 108 89 73 56 47 45 40 36 69 49 6 46 132 126 114 161 184 316 324 274 323 338 332 318 286 298 337 349 327 344 5 102 173 252 312 317 272 257 41 8 360 250 114 12
154 150 141 126 106 88 70 53 50 48 46 64 60 10 30 98 135 196 166 289 274 287 287 341 343 325 318 324 317 338 322 328 324 322 331 190 196 246 276 284 282 352 344 322 356 0 346
156 153 148 139 123 104 88 70 57 53 41 50 69 29 358 62 137 204 198 212 200 255 307 22 267 157 336 352 325 351 305 356 284 302 308 291 300 197 195 245 242 15 344 3 338 318 352
156 151 149 144 137 123 106 90 71 60 35 359 87 53 11 330 31 259 261 272 266 279 293 200 355 334 3 303 335 302 289 294 316 297 203 265 16 299 269 281 332 320 326 358 339 314 350